Home > Weather > Bijar > Past weeks

Flag for Iran Past Weather in Bijar, Iran — Yesterday and Last 2 Weeks

Now
91 °F

Scattered clouds.


Feels Like: 87 °F
Forecast: 67 / 97 °F
Wind: 2 mph from South

Location: Sanandaj Airport

Current Time: Aug 30, 2016 at 12:03:44 PM

Latest Report: Aug 30, 2016 at 11:30 AM


Visibility: N/A

Pressure: 30.07 "Hg (24.25 "Hg at 1927m altitude)

Humidity: 12%

Dew Point: 32 °F

Location of BijarLocation

Past Weather in Bijar — Graph

°F

Bijar Temperature Yesterday

Maximum temperature yesterday: 100 °F (at 2:25 PM)
Minimum temperature yesterday: 63 °F (at 5:21 AM)
Average temperature yesterday: 81 °F

High & Low Weather Summary for the Past Weeks

 TemperatureHumidityPressure
High102 °F (Aug 27, 3:30 PM)45% (Aug 28, 6:24 AM)30.18 "Hg (Aug 28, 6:24 AM)
Low59 °F (Aug 23, 6:54 AM)7% (Aug 15, 4:26 PM)29.77 "Hg (Aug 17, 5:25 PM)
Average83 °F18%30.00 "Hg
* Reported Aug 15 11:22 AM — Aug 30 10:30 AM, Bijar, Weather by CustomWeather, © 2016

Note: Actual official high and low records may vary slightly from our data, if they occured in-between our weather recording intervals... More about our weather records

Advertising

Bijar Weather History for the Previous 24 Hours

Scroll right to see more
 ConditionsComfort  
Time TempWeatherWind HumidityBarometerVisibility
10:30 AM
Tue, Aug 30
84 °FScattered clouds.No wind18%30.07 "HgN/A
10:00 AM81 °FScattered clouds.No wind21%30.07 "HgN/A
9:30 AM77 °FScattered clouds.No wind24%30.07 "HgN/A
9:00 AM73 °FScattered clouds.No wind27%30.07 "HgN/A
8:30 AM70 °FScattered clouds.No wind35%30.07 "HgN/A
8:00 AM68 °FPassing clouds.2 mph38%30.07 "HgN/A
7:30 AM68 °FPassing clouds.No wind35%30.07 "HgN/A
7:00 AM68 °FPassing clouds.2 mph35%30.07 "HgN/A
6:23 AM70 °FPassing clouds.No wind31%30.07 "HgN/A
5:24 AM70 °FPassing clouds.2 mph33%30.04 "HgN/A
4:25 AM72 °FPassing clouds.No wind29%30.04 "HgN/A
3:24 AM72 °FPassing clouds.No wind27%30.07 "HgN/A
2:23 AM72 °FPassing clouds.2 mph31%30.07 "HgN/A
1:22 AM75 °FPassing clouds.5 mph24%30.07 "HgN/A
12:30 AM75 °FPassing clouds.No wind24%30.04 "HgN/A
11:20 PM
Mon, Aug 29
81 °FPassing clouds.2 mph18%30.07 "HgN/A
10:26 PM84 °FPassing clouds.2 mph18%30.04 "HgN/A
9:21 PM93 °FScattered clouds.7 mph9%30.04 "HgN/A
8:20 PM95 °FPartly sunny.7 mph8%30.01 "HgN/A
7:21 PM95 °FScattered clouds.5 mph13%29.98 "HgN/A
6:24 PM97 °FScattered clouds.5 mph12%29.98 "HgN/A
5:30 PM99 °FScattered clouds.7 mph8%29.98 "HgN/A
4:30 PM100 °FScattered clouds.9 mph8%30.01 "HgN/A
3:30 PM100 °FScattered clouds.9 mph8%30.01 "HgN/A
2:25 PM100 °FScattered clouds.5 mph8%30.04 "HgN/A
1:20 PM99 °FScattered clouds.5 mph9%30.07 "HgN/A
12:30 PM95 °FPassing clouds.No wind11%30.12 "HgN/A
Weather by CustomWeather, © 2016

See weather overviewHow to use our weather pages